This is the latest recevied weather packets stored in our database for station/object EI8EPB-1. If no packets are shown the sender has not sent any weather packets the latest 10 day(s).
| Time | Temp. | Humidity | Pressure | Rain* | Wind** | Luminosity | Snow |
|---|---|---|---|---|---|---|---|
| 1777983604 | 12.78° C | 76% | 1015.2 hPa | 0 mm | - | - | - |
| 1777983303 | 12.78° C | 76% | 1015.2 hPa | 0 mm | - | - | - |
| 1777983003 | 12.78° C | 76% | 1015.2 hPa | 0 mm | - | - | - |
| 1777982703 | 12.78° C | 78% | 1015.3 hPa | 0 mm | - | - | - |
| 1777982403 | 12.78° C | 77% | 1015.3 hPa | 0 mm | - | - | - |
| 1777982104 | 12.78° C | 78% | 1015.4 hPa | 0 mm | - | - | - |
| 1777981803 | 12.22° C | 79% | 1015.4 hPa | 0 mm | - | - | - |
| 1777981503 | 12.22° C | 79% | 1015.5 hPa | 0 mm | - | - | - |
| 1777981204 | 12.22° C | 81% | 1015.5 hPa | 0 mm | - | - | - |
| 1777980903 | 11.67° C | 81% | 1015.5 hPa | 0 mm | - | - | - |
| 1777980603 | 11.11° C | 82% | 1015.6 hPa | 0 mm | - | - | - |
| 1777980304 | 11.11° C | 82% | 1015.5 hPa | 0 mm | - | - | - |
| 1777980003 | 11.11° C | 82% | 1015.6 hPa | 0 mm | - | - | - |
| 1777979703 | 11.11° C | 81% | 1015.8 hPa | 0 mm | - | - | - |
| 1777979403 | 11.11° C | 82% | 1015.8 hPa | 0 mm | - | - | - |
| 1777979103 | 11.11° C | 83% | 1015.8 hPa | 0 mm | - | - | - |
| 1777978804 | 11.11° C | 84% | 1015.8 hPa | 0 mm | - | - | - |
| 1777978503 | 11.11° C | 83% | 1015.8 hPa | 0 mm | - | - | - |
| 1777978203 | 11.11° C | 82% | 1015.9 hPa | 0 mm | - | - | - |
| 1777977903 | 11.11° C | 80% | 1015.9 hPa | 0 mm | - | - | - |
| 1777977603 | 11.67° C | 78% | 1015.9 hPa | 0 mm | - | - | - |
| 1777977304 | 11.67° C | 76% | 1015.8 hPa | 0 mm | - | - | - |
| 1777977003 | 11.67° C | 75% | 1015.8 hPa | 0 mm | - | - | - |
| 1777976703 | 12.22° C | 76% | 1015.7 hPa | 0 mm | - | - | - |
| 1777976403 | 12.22° C | 75% | 1015.7 hPa | 0 mm | - | - | - |
* Rain latest hour (hover to see other rain measurements)
** Current wind speed in m/s (hover to see current wind gust speed)